STARLINK-32959

Satellite information

Favourite Embed

Satellite Type and Status

PAYLOADIN ORBIT

Key statistics

Satellite STARLINK-32959 at a glance.

Uptime

243

Days in orbit

Revolutions

≈ 15.3

Per day

Orbit

LEO

Low Earth Orbit

Inclination

43.0

Latest

Satellite identification and parameters

Extended collection of information and parameters for STARLINK-32959.

Object identification

Identified? True

Debris? False

Object name: STARLINK-32959

International designator: 2025-076A

Object number (NORAD): 63569

Object ID (CCSDS): 63569

Country: UNITED STATES OF AMERICA (US)

Current information (Y/N): Y

RCS size: LARGE

Orbital parameters

Period: 94.266 minutes

Inclination: 43.0002 deg

SMA: 6861.138 km

Apoapsis: 483.739 km

Periapsis: 482.267 km

RAAN: 103.1335 deg

Eccentricy: 0.00010729

Argument of periapsis: 261.7063 deg

Mean anomaly: 98.3667 deg

Mean motion: 15.27595965 rev/day

Mean motion (dot): 0.00044407 rev/day2

B* drag term: 0.0016127598 1/REarth

Two-line elements (TLE)

Creation date: Dec. 11, 2025, 7:14 p.m.

Reference frame: TEME

Reference center: EARTH

Epoch: Dec. 11, 2025, 2:29 p.m. UTC

TLE line 0: 0 STARLINK-32959

TLE line 1: 1 63569U 25076A 25345.60383578 .00044407 00000-0 16128-2 0 9997

TLE line 2: 2 63569 43.0002 103.1335 0001073 261.7063 98.3667 15.27595965 38310

Live tracking on map

Real-time ground track for satellite STARLINK-32959.

In-orbit conjunctions

There are no conjunctions computed for STARLINK-32959, at the moment. Check back to stay up to date, as we update our databases every day.

Go to all conjunctions

Associated space launch

A batch of 27 satellites for the Starlink mega-constellation - SpaceX's project for space-based Internet communication system.

STARLINK-32959 was lifted into orbit during the mission ‘Falcon 9 Block 5 | Starlink Group 6-73’, on board a Falcon 9 space rocket.

The launch took place on April 14, 2025, 4 a.m. from Space Launch Complex 40.

For more information about the launch, click the button.

Launch to space Falcon 9 Block 5 | Starlink Group 6-73
Falcon 9 Block 5 | Starlink Group 6-73

Agency: SpaceX

Status: Launch Successful

Launch date: April 14, 2025, 4 a.m. UTC

Rocket: Falcon 9

Launch pad: Space Launch Complex 40

Location: Cape Canaveral SFS, FL, USA

...

Latest news about this satellite

News about space launch
Live coverage: SpaceX to launch 27 Starlink satellites on Falcon 9 rocket from Cape Canaveral

The Starlink 6-73 mission features a Falcon booster, tail number 1067, which will launch for a record-setting 27th time. Liftoff from pad 40 at Cape Canaveral Space Force Station is targeting 10:34 p.m. EDT (0234 UTC).


Newsletter sign-up

Weekly statistics, charts and insights to help you stay on top of the space industry.